Вернуться в каталог

SL-14 DEB

АктивенPO
NORAD 45285·DEBRIS·🇷🇺 Russia

Запущен Aug 15, 1991 с Plesetsk Cosmodrome

Loading…

Ближайшие Пролёты (ближайшие 24 часа)

TLE

СвежийSource: Space-Track

Эпоха: Sep 14, 2026, 01:58 UTC

1 45285U 91056X   26257.08212937  .00000096  00000-0  27048-3 0  9998
2 45285  82.5660 129.7302 0109264 211.5057 147.9483 13.00696529312261

Отслеживайте SL-14 DEB в реальном времени с AllMySat

Download on the App Store